User: anonymous   Login
Location: Unspecified
(0.0000°N, 0.0000°E)
Time: 21:07:50
(UTC+00:00)
Language:

STARLINK-3601 - Orbit

View from above orbital plane
View from above orbital plane
View from above satellite
View from above satellite

Ground track
Ground track

The orbit is defined by the following mean orbital elements,

1 51804U          26145.26152694 +.00000000 +00000-0 -50771-4 0 00009
2 51804  53.2134 345.3754 0001221  97.8921 262.2210 15.08831113    07
Epoch (UTC): 25 May 2026 06:16:35
Eccentricity: 0.0001221
inclination: 53.2134°
perigee height: 539 km
apogee height: 541 km
right ascension of ascending node: 345.3754°
argument of perigee: 97.8921°
revolutions per day: 15.08831113
mean anomaly at epoch: 262.2210°

The dashed part of the orbit path shows where the satellite is in the earth's shadow,  

DLR